TimeCST,TemperatureF,Dew PointF,Humidity,Sea Level PressureIn,VisibilityMPH,Wind Direction,Wind SpeedMPH,Gust SpeedMPH,PrecipitationIn,Events,Conditions,WindDirDegrees,DateUTC
12:53 AM,8.1,3.9,83,30.22,10.0,SSW,5.8,-,N/A,,Clear,200,2013-01-23 06:53:00
1:53 AM,5.0,1.9,87,30.22,10.0,Calm,Calm,-,N/A,,Clear,0,2013-01-23 07:53:00
2:53 AM,3.9,1.0,88,30.23,10.0,West,5.8,-,N/A,,Clear,260,2013-01-23 08:53:00
3:53 AM,10.9,5.0,77,30.24,10.0,NNW,11.5,-,N/A,,Clear,330,2013-01-23 09:53:00
4:53 AM,10.0,3.9,76,30.25,10.0,NNW,11.5,-,N/A,,Clear,340,2013-01-23 10:53:00
5:53 AM,8.1,3.0,80,30.28,10.0,North,10.4,-,N/A,,Clear,350,2013-01-23 11:53:00
6:53 AM,8.1,1.9,76,30.32,10.0,NNW,11.5,-,N/A,,Clear,340,2013-01-23 12:53:00
7:53 AM,7.0,1.0,77,30.34,10.0,North,13.8,-,N/A,,Clear,350,2013-01-23 13:53:00
8:53 AM,7.0,-0.0,73,30.38,10.0,North,13.8,-,N/A,,Clear,350,2013-01-23 14:53:00
9:53 AM,7.0,-2.0,67,30.42,10.0,North,17.3,-,N/A,,Clear,360,2013-01-23 15:53:00
10:53 AM,7.0,-2.0,67,30.47,10.0,North,16.1,27.6,N/A,,Clear,360,2013-01-23 16:53:00
11:53 AM,6.1,-2.9,67,30.49,10.0,North,17.3,26.5,N/A,,Partly Cloudy,360,2013-01-23 17:53:00
12:53 PM,6.1,-2.9,67,30.51,10.0,North,17.3,-,N/A,,Scattered Clouds,360,2013-01-23 18:53:00
1:12 PM,5.0,-4.0,66,30.42,10.0,North,17.3,-,N/A,,Mostly Cloudy,10,2013-01-23 19:12:00
1:27 PM,5.0,-4.0,66,30.43,10.0,North,17.3,26.5,N/A,,Scattered Clouds,360,2013-01-23 19:27:00
1:53 PM,5.0,-5.1,63,30.52,10.0,North,16.1,-,N/A,,Scattered Clouds,360,2013-01-23 19:53:00
2:53 PM,3.0,-6.0,66,30.54,10.0,North,17.3,-,N/A,,Clear,10,2013-01-23 20:53:00
3:53 PM,3.0,-8.0,60,30.58,10.0,North,16.1,-,N/A,,Clear,360,2013-01-23 21:53:00
4:53 PM,1.0,-9.0,63,30.60,10.0,North,17.3,-,N/A,,Clear,10,2013-01-23 22:53:00
5:53 PM,-0.0,-9.9,63,30.63,10.0,North,16.1,21.9,N/A,,Clear,10,2013-01-23 23:53:00
6:53 PM,-0.9,-9.9,66,30.62,10.0,NNE,12.7,-,N/A,,Clear,20,2013-01-24 00:53:00
7:53 PM,-0.9,-11.0,62,30.66,10.0,NNE,9.2,-,N/A,,Clear,30,2013-01-24 01:53:00
8:53 PM,-2.0,-14.1,57,30.65,10.0,NNE,11.5,-,N/A,,Clear,30,2013-01-24 02:53:00
9:53 PM,-2.9,-13.0,62,30.69,10.0,NNE,8.1,-,N/A,,Clear,20,2013-01-24 03:53:00
10:53 PM,-4.0,-11.0,72,30.69,10.0,ENE,10.4,-,N/A,,Scattered Clouds,70,2013-01-24 04:53:00
11:53 PM,-5.1,-13.0,69,30.67,10.0,East,11.5,-,N/A,,Clear,80,2013-01-24 05:53:00